SWR5QT EDDB-LSZH

Flight info

Callsign SWR5QT
Flight time 1h 12m
Altitude 30000
Route KISUC1N KISUC Z20 MAG Z92 ABGUS DCT LUXUX/N0443F310 DCT SWALM/N0441F300 DCT OMOGI/N0443F310 T721 RILAX
Aircraft A321/M-SDE3FGHIRWY/LB1

Departure

Time 2026-05-01 08:54
Airport Berlin Brandenburg Airport (EDDB)

Arrival

Time 2026-05-01 10:06
Airport Zürich Airport (LSZH)
Time Latitude Longitude Altitude Speed Heading
2026-05-01 08:13 52.36246 13.50676 155 ft 0 kts 68°
2026-05-01 08:41 52.36241 13.50657 155 ft 4 kts 68°
2026-05-01 08:42 52.36232 13.50616 154 ft 4 kts 69°
2026-05-01 08:42 52.36222 13.50575 154 ft 4 kts 69°
2026-05-01 08:42 52.36213 13.50534 154 ft 4 kts 69°
2026-05-01 08:42 52.36203 13.50493 154 ft 4 kts 69°
2026-05-01 08:43 52.36195 13.50460 154 ft 4 kts 76°
2026-05-01 08:43 52.36195 13.50419 154 ft 4 kts 118°
2026-05-01 08:43 52.36212 13.50390 154 ft 3 kts 157°
2026-05-01 08:43 52.36215 13.50388 154 ft 0 kts 159°
2026-05-01 08:46 52.36214 13.50389 154 ft 2 kts 159°
2026-05-01 08:46 52.36182 13.50408 154 ft 6 kts 159°
2026-05-01 08:46 52.36149 13.50430 154 ft 5 kts 159°
2026-05-01 08:46 52.36122 13.50447 154 ft 4 kts 159°
2026-05-01 08:47 52.36091 13.50466 154 ft 8 kts 159°
2026-05-01 08:47 52.36031 13.50505 154 ft 9 kts 158°
2026-05-01 08:47 52.35975 13.50541 154 ft 8 kts 159°
2026-05-01 08:47 52.35926 13.50570 154 ft 7 kts 159°
2026-05-01 08:48 52.35868 13.50607 154 ft 10 kts 159°
2026-05-01 08:48 52.35807 13.50645 154 ft 9 kts 159°
2026-05-01 08:48 52.35754 13.50679 154 ft 8 kts 159°
2026-05-01 08:48 52.35717 13.50731 154 ft 6 kts 114°
2026-05-01 08:49 52.35720 13.50805 154 ft 9 kts 73°
2026-05-01 08:49 52.35748 13.50925 154 ft 12 kts 69°
2026-05-01 08:49 52.35776 13.51042 154 ft 11 kts 69°
2026-05-01 08:49 52.35807 13.51175 154 ft 16 kts 69°
2026-05-01 08:50 52.35847 13.51339 154 ft 15 kts 68°
2026-05-01 08:50 52.35885 13.51494 154 ft 14 kts 68°
2026-05-01 08:50 52.35927 13.51670 154 ft 18 kts 69°
2026-05-01 08:50 52.35971 13.51862 155 ft 18 kts 69°
2026-05-01 08:51 52.36014 13.52042 155 ft 15 kts 68°
2026-05-01 08:51 52.36019 13.52155 155 ft 9 kts 124°
2026-05-01 08:51 52.35970 13.52201 155 ft 8 kts 158°
2026-05-01 08:51 52.35923 13.52231 155 ft 7 kts 159°
2026-05-01 08:52 52.35875 13.52260 155 ft 10 kts 163°
2026-05-01 08:52 52.35823 13.52227 155 ft 8 kts 238°
2026-05-01 08:52 52.35809 13.52174 155 ft 0 kts 248°
2026-05-01 08:52 52.35805 13.52158 155 ft 11 kts 249°
2026-05-01 08:53 52.35683 13.51646 155 ft 83 kts 249°
2026-05-01 08:53 52.35403 13.50469 155 ft 137 kts 249°
2026-05-01 08:53 52.35008 13.48802 160 ft 175 kts 249°
2026-05-01 08:53 52.34565 13.46898 595 ft 179 kts 249°
2026-05-01 08:54 52.34025 13.45055 1166 ft 182 kts 233°
2026-05-01 08:54 52.33146 13.43517 1526 ft 193 kts 227°
2026-05-01 08:54 52.32189 13.41800 1701 ft 215 kts 229°
2026-05-01 08:54 52.31173 13.39892 2137 ft 226 kts 230°
2026-05-01 08:55 52.30141 13.37943 2908 ft 228 kts 230°
2026-05-01 08:55 52.29108 13.36007 3626 ft 231 kts 230°
2026-05-01 08:55 52.28042 13.34016 4356 ft 234 kts 229°
2026-05-01 08:55 52.26958 13.31996 5037 ft 238 kts 229°
2026-05-01 08:56 52.25859 13.29953 5778 ft 242 kts 229°
2026-05-01 08:56 52.24750 13.27869 6477 ft 245 kts 233°
2026-05-01 08:56 52.23898 13.25412 6935 ft 259 kts 249°
2026-05-01 08:56 52.23190 13.22575 7289 ft 278 kts 249°
2026-05-01 08:57 52.22456 13.19610 7949 ft 285 kts 249°
2026-05-01 08:57 52.21705 13.16595 8648 ft 289 kts 249°
2026-05-01 08:57 52.20941 13.13546 9359 ft 293 kts 248°
2026-05-01 08:57 52.20174 13.10499 10039 ft 296 kts 248°
2026-05-01 08:58 52.19382 13.07367 10708 ft 301 kts 248°
2026-05-01 08:58 52.18579 13.04203 11369 ft 304 kts 248°
2026-05-01 08:58 52.17763 13.00990 12020 ft 309 kts 248°
2026-05-01 08:58 52.16939 12.97743 12689 ft 312 kts 248°
2026-05-01 08:59 52.16214 12.94393 13269 ft 318 kts 257°
2026-05-01 08:59 52.15686 12.90760 13407 ft 340 kts 258°
2026-05-01 08:59 52.15148 12.86896 13541 ft 361 kts 258°
2026-05-01 08:59 52.14592 12.82872 13791 ft 375 kts 258°
2026-05-01 09:00 52.14014 12.78707 14334 ft 380 kts 258°
2026-05-01 09:00 52.13422 12.74489 14945 ft 384 kts 258°
2026-05-01 09:00 52.12821 12.70237 15530 ft 387 kts 258°
2026-05-01 09:00 52.12212 12.65945 16106 ft 391 kts 258°
2026-05-01 09:01 52.11594 12.61619 16661 ft 394 kts 258°
2026-05-01 09:01 52.10966 12.57257 17210 ft 397 kts 258°
2026-05-01 09:01 52.10329 12.52863 17746 ft 401 kts 258°
2026-05-01 09:01 52.09697 12.48495 18250 ft 404 kts 258°
2026-05-01 09:02 52.09053 12.44034 18751 ft 407 kts 258°
2026-05-01 09:02 52.08403 12.39550 19233 ft 409 kts 258°
2026-05-01 09:02 52.07745 12.35031 19714 ft 412 kts 257°
2026-05-01 09:02 52.07079 12.30482 20193 ft 415 kts 257°
2026-05-01 09:03 52.06410 12.25916 20664 ft 417 kts 257°
2026-05-01 09:03 52.05737 12.21323 21109 ft 420 kts 257°
2026-05-01 09:03 52.05060 12.16696 21568 ft 422 kts 257°
2026-05-01 09:03 52.04374 12.12049 22012 ft 425 kts 257°
2026-05-01 09:04 52.03678 12.07368 22447 ft 427 kts 257°
2026-05-01 09:04 52.02989 12.02736 22879 ft 429 kts 257°
2026-05-01 09:04 52.02284 11.98011 23297 ft 431 kts 257°
2026-05-01 09:04 52.01573 11.93264 23702 ft 434 kts 257°
2026-05-01 09:05 52.00858 11.88499 24096 ft 436 kts 257°
2026-05-01 09:05 52.00137 11.83699 24477 ft 439 kts 257°
2026-05-01 09:05 51.99414 11.78881 24866 ft 440 kts 257°
2026-05-01 09:05 51.98652 11.74058 25239 ft 442 kts 256°
2026-05-01 09:06 51.97841 11.69224 25599 ft 445 kts 255°
2026-05-01 09:06 51.97000 11.64397 25973 ft 446 kts 255°
2026-05-01 09:06 51.96143 11.59548 26341 ft 448 kts 255°
2026-05-01 09:06 51.95297 11.54745 26680 ft 450 kts 255°
2026-05-01 09:07 51.94446 11.49863 27025 ft 452 kts 255°
2026-05-01 09:07 51.93609 11.45032 27358 ft 453 kts 255°
2026-05-01 09:07 51.92759 11.40106 27700 ft 455 kts 255°
2026-05-01 09:07 51.91911 11.35167 28026 ft 456 kts 255°
2026-05-01 09:08 51.91057 11.30204 28330 ft 458 kts 255°
2026-05-01 09:08 51.90194 11.25227 28630 ft 460 kts 255°
2026-05-01 09:08 51.89322 11.20246 28921 ft 461 kts 255°
2026-05-01 09:08 51.88441 11.15239 29219 ft 463 kts 255°
2026-05-01 09:09 51.87558 11.10228 29501 ft 464 kts 255°
2026-05-01 09:09 51.86685 11.05260 29776 ft 466 kts 255°
2026-05-01 09:09 51.85800 11.00209 30065 ft 467 kts 255°
2026-05-01 09:09 51.84913 10.95159 30387 ft 466 kts 255°
2026-05-01 09:10 51.83149 10.85243 30451 ft 450 kts 254°
2026-05-01 09:10 51.81410 10.75571 30449 ft 447 kts 254°
2026-05-01 09:11 51.79675 10.65941 30449 ft 446 kts 254°
2026-05-01 09:11 51.77948 10.56399 30449 ft 445 kts 254°
2026-05-01 09:12 51.76207 10.46795 30444 ft 446 kts 254°
2026-05-01 09:12 51.74461 10.37200 30444 ft 446 kts 254°
2026-05-01 09:13 51.72703 10.27615 30444 ft 445 kts 254°
2026-05-01 09:13 51.70932 10.18044 30440 ft 446 kts 254°
2026-05-01 09:14 51.69159 10.08480 30440 ft 445 kts 254°
2026-05-01 09:14 51.67380 9.98928 30437 ft 445 kts 253°
2026-05-01 09:15 51.65593 9.89392 30435 ft 444 kts 253°
2026-05-01 09:15 51.62823 9.80554 30434 ft 445 kts 232°
2026-05-01 09:16 51.60738 9.76898 30432 ft 444 kts 221°
2026-05-01 09:16 51.58276 9.73904 30426 ft 444 kts 211°
2026-05-01 09:17 51.49752 9.68122 30426 ft 444 kts 201°
2026-05-01 09:17 51.41140 9.62791 30422 ft 444 kts 201°
2026-05-01 09:18 51.32485 9.57444 30422 ft 445 kts 201°
2026-05-01 09:19 51.23819 9.52115 30419 ft 445 kts 201°
2026-05-01 09:20 51.15143 9.46809 30421 ft 445 kts 201°
2026-05-01 09:21 51.03396 9.40697 30423 ft 445 kts 191°
2026-05-01 09:21 50.94319 9.37909 30421 ft 445 kts 190°
2026-05-01 09:22 50.82148 9.34204 30414 ft 445 kts 190°
2026-05-01 09:23 50.73019 9.31440 30410 ft 445 kts 190°
2026-05-01 09:24 50.63923 9.28696 30407 ft 446 kts 190°
2026-05-01 09:25 50.51733 9.25048 30402 ft 446 kts 190°
2026-05-01 09:26 50.42636 9.22321 30393 ft 446 kts 190°
2026-05-01 09:26 50.33495 9.19597 30388 ft 446 kts 190°
2026-05-01 09:27 50.24344 9.16880 30391 ft 446 kts 190°
2026-05-01 09:28 50.18247 9.15083 30389 ft 446 kts 190°
2026-05-01 09:28 50.12143 9.13288 30389 ft 446 kts 190°
2026-05-01 09:29 50.04025 9.10901 30383 ft 446 kts 190°
2026-05-01 09:30 49.93885 9.07932 30382 ft 446 kts 190°
2026-05-01 09:30 49.84721 9.05260 30382 ft 447 kts 190°
2026-05-01 09:31 49.79642 9.03780 30386 ft 447 kts 190°
2026-05-01 09:32 49.70466 9.01121 30382 ft 447 kts 190°
2026-05-01 09:32 49.61293 8.98470 30374 ft 447 kts 190°
2026-05-01 09:33 49.55139 8.96695 30376 ft 447 kts 190°
2026-05-01 09:34 49.45966 8.94065 30367 ft 448 kts 190°
2026-05-01 09:34 49.36780 8.91444 30363 ft 448 kts 190°
2026-05-01 09:35 49.27630 8.88841 30363 ft 448 kts 190°
2026-05-01 09:35 49.24560 8.87965 30158 ft 449 kts 190°
2026-05-01 09:36 49.21494 8.87090 29805 ft 449 kts 190°
2026-05-01 09:36 49.18386 8.86206 29449 ft 447 kts 190°
2026-05-01 09:36 49.15339 8.85345 29102 ft 445 kts 190°
2026-05-01 09:36 49.12342 8.84501 28756 ft 443 kts 190°
2026-05-01 09:37 49.09316 8.83651 28412 ft 440 kts 190°
2026-05-01 09:37 49.03322 8.81976 27763 ft 436 kts 190°
2026-05-01 09:37 49.00341 8.81139 27483 ft 434 kts 190°
2026-05-01 09:38 48.94420 8.79469 26984 ft 431 kts 190°
2026-05-01 09:38 48.91473 8.78633 26732 ft 430 kts 190°
2026-05-01 09:38 48.88541 8.77805 26488 ft 428 kts 189°
2026-05-01 09:39 48.82701 8.76169 25981 ft 425 kts 189°
2026-05-01 09:39 48.79800 8.75359 25730 ft 423 kts 189°
2026-05-01 09:39 48.76907 8.74556 25481 ft 422 kts 189°
2026-05-01 09:40 48.74025 8.73761 25233 ft 420 kts 189°
2026-05-01 09:40 48.68291 8.72181 24732 ft 417 kts 189°
2026-05-01 09:40 48.65444 8.71395 24480 ft 415 kts 189°
2026-05-01 09:41 48.62643 8.70622 24234 ft 414 kts 189°
2026-05-01 09:41 48.57008 8.69062 23737 ft 411 kts 189°
2026-05-01 09:41 48.54197 8.68281 23483 ft 409 kts 189°
2026-05-01 09:42 48.51400 8.67513 23234 ft 408 kts 189°
2026-05-01 09:42 48.48614 8.66749 22983 ft 406 kts 189°
2026-05-01 09:42 48.43092 8.65222 22480 ft 403 kts 189°
2026-05-01 09:43 48.37661 8.63733 21883 ft 392 kts 189°
2026-05-01 09:43 48.35002 8.63008 21450 ft 388 kts 189°
2026-05-01 09:43 48.32400 8.62299 21029 ft 384 kts 189°
2026-05-01 09:44 48.27200 8.60879 20155 ft 376 kts 189°
2026-05-01 09:44 48.24640 8.60179 19709 ft 373 kts 189°
2026-05-01 09:44 48.22094 8.59481 19266 ft 370 kts 189°
2026-05-01 09:45 48.19571 8.58794 18813 ft 367 kts 189°
2026-05-01 09:45 48.14578 8.57422 18057 ft 368 kts 190°
2026-05-01 09:45 48.12046 8.56677 17759 ft 372 kts 190°
2026-05-01 09:46 48.09504 8.55911 17440 ft 372 kts 190°
2026-05-01 09:46 48.06973 8.55142 17059 ft 370 kts 190°
2026-05-01 09:46 48.04462 8.54381 16685 ft 368 kts 190°
2026-05-01 09:46 48.01957 8.53625 16307 ft 366 kts 190°
2026-05-01 09:47 47.99468 8.52883 15924 ft 363 kts 189°
2026-05-01 09:47 47.97000 8.52547 15558 ft 360 kts 177°
2026-05-01 09:47 47.94538 8.53039 15180 ft 356 kts 164°
2026-05-01 09:47 47.92235 8.54322 14808 ft 352 kts 151°
2026-05-01 09:48 47.90201 8.56308 14433 ft 349 kts 139°
2026-05-01 09:48 47.88333 8.58612 14054 ft 348 kts 139°
2026-05-01 09:48 47.86470 8.60898 13681 ft 346 kts 139°
2026-05-01 09:48 47.84612 8.63160 13311 ft 344 kts 140°
2026-05-01 09:49 47.82759 8.65404 12925 ft 342 kts 140°
2026-05-01 09:49 47.80915 8.67634 12550 ft 340 kts 140°
2026-05-01 09:49 47.79105 8.69821 12184 ft 339 kts 140°
2026-05-01 09:49 47.77282 8.72022 11805 ft 337 kts 140°
2026-05-01 09:50 47.75454 8.74231 11431 ft 335 kts 140°
2026-05-01 09:50 47.73663 8.76392 11067 ft 333 kts 140°
2026-05-01 09:50 47.71891 8.78528 10894 ft 322 kts 140°
2026-05-01 09:50 47.70188 8.80579 10758 ft 306 kts 140°
2026-05-01 09:51 47.68571 8.82526 10535 ft 293 kts 140°
2026-05-01 09:51 47.66998 8.84423 10261 ft 292 kts 140°
2026-05-01 09:51 47.65437 8.86301 9925 ft 287 kts 140°
2026-05-01 09:51 47.63885 8.88163 9600 ft 286 kts 140°
2026-05-01 09:52 47.62452 8.90182 9277 ft 284 kts 130°
2026-05-01 09:52 47.61320 8.92515 8959 ft 282 kts 119°
2026-05-01 09:52 47.60418 8.95089 8597 ft 281 kts 116°
2026-05-01 09:52 47.59527 8.97668 8300 ft 280 kts 117°
2026-05-01 09:53 47.58636 9.00217 8040 ft 278 kts 117°
2026-05-01 09:53 47.57559 9.02571 7802 ft 276 kts 136°
2026-05-01 09:53 47.55917 9.03980 7558 ft 276 kts 164°
2026-05-01 09:53 47.54011 9.04089 7402 ft 277 kts 192°
2026-05-01 09:54 47.52289 9.02866 7353 ft 279 kts 220°
2026-05-01 09:54 47.51107 9.00593 7175 ft 281 kts 247°
2026-05-01 09:54 47.50760 8.97775 7035 ft 281 kts 275°
2026-05-01 09:54 47.51234 8.94985 7017 ft 281 kts 290°
2026-05-01 09:55 47.51906 8.92361 7013 ft 282 kts 292°
2026-05-01 09:55 47.52625 8.89655 7017 ft 282 kts 292°
2026-05-01 09:55 47.53345 8.86960 7014 ft 282 kts 292°
2026-05-01 09:55 47.54070 8.84257 6998 ft 282 kts 292°
2026-05-01 09:56 47.54794 8.81557 7014 ft 283 kts 292°
2026-05-01 09:56 47.55518 8.78850 6861 ft 282 kts 291°
2026-05-01 09:56 47.56241 8.76154 6687 ft 281 kts 292°
2026-05-01 09:56 47.56962 8.73467 6510 ft 280 kts 292°
2026-05-01 09:57 47.57679 8.70791 6332 ft 280 kts 292°
2026-05-01 09:57 47.58374 8.68196 6157 ft 278 kts 291°
2026-05-01 09:57 47.59099 8.65487 5975 ft 278 kts 292°
2026-05-01 09:57 47.59812 8.62828 5792 ft 277 kts 292°
2026-05-01 09:58 47.60520 8.60185 5551 ft 276 kts 291°
2026-05-01 09:58 47.61226 8.57549 5299 ft 275 kts 292°
2026-05-01 09:58 47.61927 8.54934 5049 ft 270 kts 292°
2026-05-01 09:58 47.62609 8.52380 4825 ft 264 kts 292°
2026-05-01 09:59 47.63275 8.49887 4618 ft 256 kts 291°
2026-05-01 09:59 47.63913 8.47497 4456 ft 248 kts 291°
2026-05-01 09:59 47.64543 8.45130 4286 ft 240 kts 291°
2026-05-01 09:59 47.65147 8.42864 4112 ft 238 kts 292°
2026-05-01 10:00 47.65744 8.40609 4030 ft 229 kts 290°
2026-05-01 10:00 47.65974 8.38350 4004 ft 220 kts 265°
2026-05-01 10:00 47.65529 8.36212 4024 ft 218 kts 236°
2026-05-01 10:00 47.64426 8.34742 4018 ft 215 kts 204°
2026-05-01 10:01 47.62979 8.34369 3999 ft 212 kts 171°
2026-05-01 10:01 47.61639 8.35188 4025 ft 210 kts 140°
2026-05-01 10:01 47.60608 8.36573 4021 ft 210 kts 136°
2026-05-01 10:01 47.59580 8.38008 4005 ft 210 kts 136°
2026-05-01 10:02 47.58592 8.39372 3999 ft 212 kts 136°
2026-05-01 10:02 47.57604 8.40732 3894 ft 201 kts 136°
2026-05-01 10:02 47.56711 8.41958 3659 ft 187 kts 136°
2026-05-01 10:02 47.55861 8.43124 3464 ft 172 kts 136°
2026-05-01 10:03 47.55040 8.44250 3234 ft 156 kts 136°
2026-05-01 10:03 47.54279 8.45294 3036 ft 151 kts 136°
2026-05-01 10:03 47.53511 8.46348 2839 ft 150 kts 136°
2026-05-01 10:03 47.52743 8.47399 2652 ft 150 kts 136°
2026-05-01 10:04 47.51978 8.48446 2456 ft 150 kts 136°
2026-05-01 10:04 47.51219 8.49486 2249 ft 149 kts 136°
2026-05-01 10:04 47.50460 8.50526 2051 ft 148 kts 136°
2026-05-01 10:04 47.49702 8.51562 1856 ft 148 kts 137°
2026-05-01 10:05 47.48949 8.52589 1672 ft 147 kts 136°
2026-05-01 10:05 47.48209 8.53599 1460 ft 146 kts 136°
2026-05-01 10:05 47.47494 8.54580 1395 ft 127 kts 136°
2026-05-01 10:05 47.46978 8.55288 1388 ft 75 kts 137°
2026-05-01 10:06 47.46718 8.55644 1402 ft 26 kts 137°
2026-05-01 10:06 47.46598 8.55805 1396 ft 22 kts 139°
2026-05-01 10:06 47.46472 8.55915 1397 ft 20 kts 159°
2026-05-01 10:06 47.46349 8.55967 1402 ft 17 kts 167°
2026-05-01 10:07 47.46249 8.55998 1410 ft 13 kts 170°
2026-05-01 10:07 47.46174 8.56002 1406 ft 10 kts 185°
2026-05-01 10:07 47.46114 8.55993 1409 ft 8 kts 186°
2026-05-01 10:07 47.46063 8.55986 1407 ft 8 kts 185°
2026-05-01 10:08 47.45884 8.55924 1408 ft 11 kts 198°
2026-05-01 10:08 47.45794 8.55880 1410 ft 15 kts 194°
2026-05-01 10:08 47.45694 8.55865 1409 ft 15 kts 186°
2026-05-01 10:09 47.45596 8.55849 1409 ft 13 kts 186°
2026-05-01 10:09 47.45512 8.55823 1411 ft 8 kts 200°
2026-05-01 10:09 47.45460 8.55809 1413 ft 8 kts 185°
2026-05-01 10:09 47.45431 8.55804 1413 ft 2 kts 186°
2026-05-01 10:10 47.45430 8.55804 1413 ft 0 kts 186°